| time (UTC) | temp F | wind direction | speed knots | gust knots | rain 1hr in | rain 24hr in | rain mn in | humidity % | barometer mb |
| 20260506153348 | 40 | 355 | 0.0 | 1.7 | 0.00 | 0.00 | 0.00 | 45 | 1017.8 |
| 20260506151839 | 39 | 33 | 0.0 | 1.7 | 0.00 | 0.00 | 0.00 | 48 | 1018.0 |
| 20260506150340 | 36 | 123 | 0.0 | 1.7 | 0.00 | 0.00 | 0.00 | 55 | 1018.2 |
| 20260506144900 | 33 | 167 | 0.0 | 0.0 | 0.00 | 0.00 | 0.00 | 58 | 1018.3 |
| 20260506143334 | 30 | 180 | 0.0 | 0.9 | 0.00 | 0.00 | 0.00 | 62 | 1018.3 |
| 20260506141852 | 28 | 140 | 0.0 | 1.7 | 0.00 | 0.00 | 0.00 | 67 | 1018.5 |
| 20260506140401 | 26 | 122 | 0.0 | 0.0 | 0.00 | 0.00 | 0.00 | 70 | 1018.6 |
| 20260506134829 | 24 | 136 | 0.0 | 0.0 | 0.00 | 0.00 | 0.00 | 76 | 1018.7 |
| 20260506133347 | 23 | 71 | 0.0 | 0.0 | 0.00 | 0.00 | 0.00 | 77 | 1018.7 |
| 20260506131850 | 22 | 36 | 0.0 | 0.0 | 0.00 | 0.00 | 0.00 | 79 | 1018.7 |
| 20260506130352 | 21 | 333 | 0.0 | 0.0 | 0.00 | 0.00 | 0.00 | 79 | 1018.8 |
| 20260506124826 | 20 | 333 | 0.0 | 0.0 | 0.00 | 0.00 | 0.00 | 82 | 1018.5 |
| 20260506123327 | 19 | 333 | 0.0 | 0.0 | 0.00 | 0.00 | 0.00 | 83 | 1018.4 |
| 20260506121852 | 19 | 334 | 0.0 | 0.0 | 0.00 | 0.00 | 0.00 | 84 | 1018.4 |
| 20260506120351 | 19 | 334 | 0.0 | 0.0 | 0.00 | 0.00 | 0.00 | 81 | 1018.4 |
| 20260506114853 | 18 | 334 | 0.0 | 0.0 | 0.00 | 0.00 | 0.00 | 81 | 1018.3 |
| 20260506113414 | 19 | 334 | 0.0 | 0.0 | 0.00 | 0.00 | 0.00 | 80 | 1018.3 |
| 20260506111832 | 19 | 334 | 0.0 | 0.0 | 0.00 | 0.00 | 0.00 | 80 | 1018.3 |
| 20260506110327 | 19 | 334 | 0.0 | 0.0 | 0.00 | 0.00 | 0.00 | 80 | 1018.3 |
| 20260506104841 | 19 | 334 | 0.0 | 0.0 | 0.00 | 0.00 | 0.00 | 80 | 1018.3 |
| 20260506103347 | 18 | 334 | 0.0 | 0.0 | 0.00 | 0.00 | 0.00 | 80 | 1018.3 |
| 20260506101826 | 19 | 334 | 0.0 | 0.0 | 0.00 | 0.00 | 0.00 | 79 | 1018.3 |
| 20260506100356 | 20 | 270 | 0.0 | 0.0 | 0.00 | 0.00 | 0.00 | 78 | 1018.3 |
| 20260506094832 | 21 | 232 | 0.0 | 0.0 | 0.00 | 0.00 | 0.00 | 79 | 1018.3 |
| 20260506093348 | 21 | 232 | 0.0 | 0.0 | 0.00 | 0.00 | 0.00 | 78 | 1018.3 |
| 20260506091838 | 22 | 232 | 0.0 | 0.0 | 0.00 | 0.00 | 0.00 | 78 | 1018.3 |
| 20260506090327 | 22 | 232 | 0.0 | 0.0 | 0.00 | 0.00 | 0.00 | 78 | 1018.3 |
| 20260506084845 | 22 | 232 | 0.0 | 0.0 | 0.00 | 0.00 | 0.00 | 77 | 1018.3 |
| 20260506083338 | 22 | 232 | 0.0 | 0.0 | 0.00 | 0.00 | 0.00 | 76 | 1018.4 |
| 20260506081829 | 23 | 232 | 0.0 | 0.0 | 0.00 | 0.00 | 0.00 | 73 | 1018.4 |
| 20260506080348 | 24 | 232 | 0.0 | 0.0 | 0.00 | 0.00 | 0.00 | 73 | 1018.4 |
| 20260506073418 | 24 | 232 | 0.0 | 0.0 | 0.00 | 0.00 | 0.00 | 72 | 1018.6 |
| 20260506071829 | 25 | 233 | 0.0 | 0.0 | 0.00 | 0.00 | 0.00 | 72 | 1018.7 |
| 20260506070341 | 26 | 233 | 0.0 | 0.0 | 0.00 | 0.00 | 0.00 | 72 | 1018.8 |
| 20260506061852 | 26 | 242 | 0.0 | 0.0 | 0.00 | 0.00 | 0.00 | 68 | 1018.8 |
| 20260506060351 | 26 | 242 | 0.0 | 0.0 | 0.00 | 0.00 | 0.00 | 66 | 1018.7 |
| 20260506050350 | 29 | 343 | 0.0 | 0.0 | 0.00 | 0.00 | 0.00 | 60 | 1018.3 |
| 20260506044839 | 30 | 343 | 0.0 | 0.0 | 0.00 | 0.00 | 0.00 | 58 | 1018.4 |
| 20260506043339 | 30 | 343 | 0.0 | 0.0 | 0.00 | 0.00 | 0.00 | 58 | 1018.4 |
| 20260506041835 | 31 | 343 | 0.0 | 0.0 | 0.00 | 0.00 | 0.00 | 57 | 1018.4 |
| 20260506040418 | 31 | 344 | 0.0 | 0.0 | 0.00 | 0.00 | 0.00 | 56 | 1018.3 |
| 20260506034839 | 32 | 344 | 0.0 | 0.0 | 0.00 | 0.00 | 0.00 | 55 | 1018.3 |
| 20260506033333 | 33 | 348 | 0.0 | 0.0 | 0.00 | 0.00 | 0.00 | 53 | 1018.3 |
| 20260506031845 | 34 | 348 | 0.0 | 0.0 | 0.00 | 0.00 | 0.00 | 52 | 1018.1 |
| 20260506030330 | 35 | 360 | 0.0 | 0.0 | 0.00 | 0.00 | 0.00 | 51 | 1017.7 |
| 20260506024826 | 36 | 5 | 0.0 | 0.0 | 0.00 | 0.00 | 0.00 | 49 | 1017.6 |
| 20260506023404 | 37 | 9 | 0.0 | 0.0 | 0.00 | 0.00 | 0.00 | 48 | 1017.2 |
| 20260506021823 | 37 | 9 | 0.0 | 1.7 | 0.00 | 0.00 | 0.00 | 47 | 1017.1 |
| 20260506020339 | 37 | 13 | 0.0 | 0.9 | 0.00 | 0.00 | 0.00 | 46 | 1016.8 |
| 20260506014827 | 38 | 360 | 0.0 | 3.5 | 0.00 | 0.00 | 0.00 | 45 | 1016.6 |
| 20260506013331 | 39 | 318 | 0.0 | 1.7 | 0.00 | 0.00 | 0.00 | 46 | 1016.5 |
| 20260506011825 | 39 | 11 | 0.0 | 2.6 | 0.00 | 0.00 | 0.00 | 44 | 1016.4 |
| 20260506010331 | 40 | 311 | 0.0 | 2.6 | 0.00 | 0.00 | 0.00 | 43 | 1016.1 |
| 20260506004840 | 40 | 25 | 0.0 | 5.2 | 0.00 | 0.00 | 0.00 | 42 | 1016.0 |
| 20260506003337 | 40 | 20 | 1.7 | 6.1 | 0.00 | 0.00 | 0.00 | 43 | 1015.9 |
| 20260506001838 | 41 | 279 | 0.0 | 4.3 | 0.00 | 0.00 | 0.00 | 45 | 1015.8 |
| 20260506000343 | 43 | 33 | 0.0 | 6.1 | 0.00 | 0.00 | 0.00 | 42 | 1015.6 |
| 20260505234828 | 41 | 298 | 0.0 | 7.0 | 0.00 | 0.00 | 0.00 | 43 | 1015.5 |
| 20260505233400 | 42 | 330 | 0.0 | 4.3 | 0.00 | 0.00 | 0.00 | 44 | 1015.3 |
| 20260505231854 | 43 | 340 | 0.0 | 6.1 | 0.00 | 0.00 | 0.00 | 44 | 1015.3 |
| 20260505230333 | 43 | 346 | 1.7 | 7.0 | 0.00 | 0.00 | 0.00 | 42 | 1015.2 |
| 20260505224832 | 41 | 317 | 0.9 | 6.1 | 0.00 | 0.00 | 0.00 | 46 | 1015.3 |
| 20260505223349 | 41 | 350 | 0.0 | 6.1 | 0.00 | 0.00 | 0.00 | 55 | 1015.2 |
| 20260505221831 | 42 | 248 | 0.0 | 5.2 | 0.00 | 0.00 | 0.00 | 57 | 1015.2 |
| 20260505220331 | 44 | 311 | 0.9 | 7.8 | 0.00 | 0.00 | 0.00 | 54 | 1015.2 |
| 20260505214837 | 43 | 309 | 0.9 | 6.1 | 0.00 | 0.00 | 0.00 | 57 | 1015.3 |
| 20260505213420 | 42 | 256 | 1.7 | 5.2 | 0.00 | 0.00 | 0.00 | 59 | 1015.3 |
| 20260505211900 | 42 | 292 | 0.9 | 10.4 | 0.00 | 0.00 | 0.00 | 59 | 1015.3 |
| 20260505210344 | 42 | 297 | 0.0 | 11.3 | 0.00 | 0.00 | 0.00 | 52 | 1015.2 |
| 20260505204840 | 44 | 12 | 0.9 | 5.2 | 0.00 | 0.00 | 0.00 | 46 | 1014.9 |
| 20260505203355 | 44 | 323 | 0.0 | 6.1 | 0.00 | 0.00 | 0.00 | 45 | 1014.9 |
| 20260505201903 | 45 | 24 | 0.0 | 6.1 | 0.00 | 0.00 | 0.00 | 50 | 1015.3 |
| 20260505200339 | 44 | 19 | 0.9 | 7.0 | 0.00 | 0.00 | 0.00 | 48 | 1015.3 |
| 20260505194830 | 43 | 355 | 1.7 | 7.8 | 0.00 | 0.00 | 0.00 | 47 | 1015.0 |
| 20260505193336 | 44 | 23 | 1.7 | 6.1 | 0.00 | 0.00 | 0.00 | 46 | 1014.9 |
| 20260505191833 | 44 | 24 | 2.6 | 8.7 | 0.00 | 0.00 | 0.00 | 46 | 1014.9 |
| 20260505190342 | 44 | 355 | 1.7 | 8.7 | 0.00 | 0.00 | 0.00 | 44 | 1014.9 |
| 20260505184916 | 44 | 19 | 0.9 | 5.2 | 0.00 | 0.00 | 0.00 | 44 | 1015.0 |
| 20260505183330 | 43 | 279 | 0.9 | 6.1 | 0.00 | 0.00 | 0.00 | 46 | 1015.2 |
| 20260505181839 | 43 | 355 | 0.9 | 5.2 | 0.00 | 0.00 | 0.00 | 44 | 1015.3 |
| 20260505180328 | 42 | 360 | 0.0 | 5.2 | 0.00 | 0.00 | 0.00 | 45 | 1015.3 |
| 20260505174832 | 40 | 334 | 0.9 | 2.6 | 0.00 | 0.00 | 0.00 | 47 | 1015.4 |
| 20260505173343 | 41 | 34 | 0.0 | 2.6 | 0.00 | 0.00 | 0.00 | 46 | 1015.6 |
| 20260505171838 | 41 | 19 | 0.0 | 6.1 | 0.00 | 0.00 | 0.00 | 47 | 1015.6 |
| 20260505170335 | 41 | 18 | 1.7 | 8.7 | 0.00 | 0.00 | 0.00 | 45 | 1015.8 |
| 20260505164835 | 39 | 5 | 1.7 | 7.8 | 0.00 | 0.00 | 0.00 | 47 | 1015.8 |
| 20260505163334 | 38 | 360 | 2.6 | 6.1 | 0.00 | 0.00 | 0.00 | 48 | 1015.9 |
| 20260505161833 | 39 | 5 | 0.9 | 9.6 | 0.00 | 0.00 | 0.00 | 50 | 1015.9 |
| 20260505160326 | 39 | 346 | 2.6 | 10.4 | 0.00 | 0.00 | 0.00 | 49 | 1016.0 |